This demonstration page uses our WeatherBlox Daily Observations layout. Learn more.

Left ArrowRight Arrow

Hourly Observations for May 28, 2016

Temp ( °F °C ) Dew Point ( °F °C ) Humidity (%) Winds ( mph kmh ) Pressure ( in mb ) Visibility ( mi km ) Precip ( " mm )
12:53 am 00:53 Clear 71 21.7 66 18.9 84 84 E 3 6 30.01 1016 10 16 N/A
1:53 am 01:53 Clear 72 22.2 65 18.3 79 79 E 3 6 30.00 1016 10 16 N/A
2:53 am 02:53 Clear 73 22.8 66 18.9 79 79 N N/A 29.99 1016 10 16 N/A
3:53 am 03:53 Clear 68 20 65 18.3 90 90 N N/A 30.00 1016 10 16 N/A
4:53 am 04:53 Clear 66 18.9 64 17.8 93 93 N N/A 30.01 1016 9 14 N/A
5:53 am 05:53 Clear 68 20 65 18.3 90 90 N N/A 30.03 1017 10 16 N/A
6:53 am 06:53 Sunny 70 21.1 66 18.9 87 87 N N/A 30.04 1017 9 14 N/A
7:53 am 07:53 Mostly Cloudy 72 22.2 66 18.9 82 82 SE 3 6 30.06 1018 10 16 N/A
8:53 am 08:53 Mostly Sunny 75 23.9 67 19.4 76 76 VRB 3 6 30.07 1018 10 16 N/A
9:53 am 09:53 Mostly Cloudy 77 25 67 19.4 71 71 VRB 3 6 30.09 1019 10 16 N/A
10:53 am 10:53 Mostly Sunny 80 26.7 68 20 67 67 VRB 3 6 30.09 1019 10 16 N/A
11:53 am 11:53 Mostly Cloudy 80 26.7 68 20 67 67 VRB 5 7 30.10 1019 10 16 N/A
12:53 pm 12:53 Mostly Cloudy with Nearby Thunderstorms 77 25 68 20 74 74 SSE 8 13 30.10 1019 10 16 N/A
1:11 pm 13:11 Partly Cloudy 78 25.6 69 20.6 74 74 VRB 3 6 30.09 1019 10 16 N/A
1:53 pm 13:53 Mostly Cloudy 79 26.1 67 19.4 67 67 SSW 7 11 30.09 1019 10 16 N/A
2:53 pm 14:53 Partly Cloudy with Light Rain 84 28.9 69 20.6 61 61 VRB 6 9 30.06 1018 10 16 N/A
3:53 pm 15:53 Mostly Cloudy 84 28.9 68 20 59 59 VRB 3 6 30.05 1018 10 16 N/A
4:53 pm 16:53 Mostly Cloudy 85 29.4 66 18.9 53 53 SSW 6 9 30.04 1017 10 16 N/A
5:53 pm 17:53 Mostly Cloudy 83 28.3 64 17.8 53 53 SSW 9 15 30.05 1018 10 16 N/A
6:53 pm 18:53 Sunny 81 27.2 66 18.9 61 61 SW 6 9 30.05 1018 10 16 N/A
7:53 pm 19:53 Sunny 80 26.7 62 16.7 54 54 SW 7 11 30.06 1018 10 16 N/A
8:53 pm 20:53 Sunny 78 25.6 62 16.7 58 58 SW 3 6 30.07 1018 10 16 N/A
9:53 pm 21:53 Clear 74 23.3 64 17.8 71 71 N N/A 30.07 1018 10 16 N/A
10:53 pm 22:53 Clear 70 21.1 64 17.8 82 82 N N/A 30.08 1019 10 16 N/A
11:53 pm 23:53 Clear 67 19.4 64 17.8 91 91 N N/A 30.07 1018 10 16 N/A

Powered by AerisWeather